CZ-6A DEB, 61124

Orbit data source: Space-Track

CZ-6A DEB, 61124 is space debris in LEO originally from a launch on Tue, 06 Aug 2024 UTC launched from the Taiyaun Space Center, China (TSC). Debris objects in space refer to the collection of defunct objects orbiting the Earth. Examples of debris include non-operational satellites, rocket bodies, and fragments generated from explosions, collisions, or faulty payload assembly.

Loading next visibility...
Identifier
61124, 2024-140PS
Orbit
LEO
Country
Flag of CNCN / PRC
Related business
Manufacturer
SAST
Mission
Spacecraft
Bus & Motor
Unknown
Mass
Unknown
Launch date (UTC)
2024-08-06 (2 years ago)
Launch vehicle
Unknown
Launch site
Taiyaun Space Center, China (TSC)
Object type
Payload
Rocket body
Debris
Shape & HBR
Unknown shape, 0.1 m
Radar Cross Section
Medium (>0.1 m² and <1 m²)

Expand to show TLE details & history
Last TLE update: 14 hours ago

TLE from 14 hours ago
0 CZ-6A DEB
1 61124U 24140PS  26171.26805407  .00003524  00000-0  40979-3 0  9990
2 61124  88.9993 267.2690 0173417 177.1058 183.1212 14.74772794 98216
Epoch: 2026-06-20T06:25Z
TLE epoch observation values (Epoch: 2026-06-20T06:25:59.871Z)
Latitude
0.00002°
Longitude
-97.71558°
Altitude
770.666 km
Speed
7.404 km/s
True Right ascension
17h 49m 04s
True Declination
0° 00' 00"
Sunlit
Object was in full shadow at epoch
Visualization orbit readout
Latitude
Unknown
Longitude
Unknown
Altitude
Unknown
Speed
Unknown
Apparent Right ascension
Unknown
Apparent Declination
Unknown
Sunlit
N/A
Visualization observer readout
Local Sidereal Time
07:20:44
Azimuth
Unknown
Elevation
Unknown
Doppler factor
Unknown
Orbital elements
Apogee altitude
764.498 km
Perigee altitude
520.99 km
Semi-major axis
7,020.881 km
Eccentricity
0.01734
Inclination
88.9993°
RAAN
267.269°
Arg. of periapsis
177.1058°
True anomaly
183.01529°
Mean anomaly
183.1212°
Eccentric anomaly
183.06802°
Mean motion
3.6894 °/min
Orbital period
97.58 mins
BSTAR
0.00040979
Loading maneuver chart data...
Computing Atmospheric mass density...
Loading historical data...
Loading historical data...
Loading historical data...
Loading historical data...
Loading historical data...
Loading historical data...
Loading historical data...

Documentation

Showing up to 5 results
|